Regional Weather Roundup
Issued by NWS

Home | Current Version | Previous Version | Text Only | Print | Product List | Glossary Off
Versions: 1 2 3 4 5 6 7 8 9 10 11 12 13 14 15 16 17 18 19 20 21 22 23 24 25 26 27 28 29 30 31 32 33 34 35 36 37 38 39 40 41 42 43 44 45 46 47 48 49 50

000
ASUS43 KDMX 262306
RWRIA

WEATHER ROUNDUP FOR IOWA
NATIONAL WEATHER SERVICE DES MOINES IA
600 PM CDT FRI MAY 26 2017

NOTE: "FAIR" INDICATES FEW OR NO CLOUDS BELOW 12,000 FEET WITH NO
SIGNIFICANT WEATHER AND/OR OBSTRUCTIONS TO VISIBILITY.

* - THESE STATIONS ARE NOT NWS STATIONS...THUS NOT UNDER NWS
QUALITY CONTROL.  THEY ALSO DO NOT REPORT WEATHER SUCH
AS PRECIPITATION OR FOG.

IAZ001>003-012>014-020>022-031>034-043>046-270000-
   NORTHWEST IOWA

CITY           SKY/WX    TMP DP  RH WIND       PRES   REMARKS
CARROLL *      MOSUNNY   81  48  32 NW9       29.78S HX  80
CHEROKEE *     SUNNY     77  44  30 W9        29.80S
DENISON *      MOSUNNY   79  48  34 N9        29.81S
LE MARS *      SUNNY     75  45  33 NW13      29.82S
ORANGE CITY *  SUNNY     73  48  40 NW10      29.82S
SHELDON *      SUNNY     75  41  29 NW15      29.80S
SIOUX CITY     SUNNY     77  48  35 NW15      29.81R
SPENCER        SUNNY     77  44  30 NW17G24   29.79S
STORM LAKE *   MOSUNNY   77  41  27 NW13G22   29.80S
$$

IAZ055>058-069>071-079>083-090>094-270000-
   SOUTHWEST IOWA

CITY           SKY/WX    TMP DP  RH WIND       PRES   REMARKS
ATLANTIC *     SUNNY     79  50  36 N14       29.79S
AUDUBON *      MOSUNNY   79  46  31 NW6       29.81S
CLARINDA *     SUNNY     84  55  37 NW12      29.79S HX  83
COUNCIL BLFS * SUNNY     79  46  31 N12       29.81R
CRESTON *      PTSUNNY   81  59  47 NE7G13    29.79S HX  81
HARLAN  *      CLOUDY    79  46  31 N7G16     29.83F
LAMONI         SUNNY     81  62  52 N6        29.77F HX  82
RED OAK *      SUNNY     82  54  36 NW10G17   29.78S HX  81
SHENANDOAH *   SUNNY     82  55  39 NW7G14    29.79R HX  82
$$

IAZ047>049-059>061-072>074-084-270000-
   CENTRAL IOWA

CITY           SKY/WX    TMP DP  RH WIND       PRES   REMARKS
AMES           MOSUNNY   80  61  52 N7        29.77R HX  81
ANKENY *       SUNNY     81  57  44 CALM      29.77S HX  81
BOONE *        SUNNY     79  61  53 NW8       29.77S HX  80
CHARITON *     SUNNY     79  63  57 VRB6      29.78S HX  80
DES MOINES     MOSUNNY   83  58  42 N6        29.76F HX  83
GRINNELL*      SUNNY     71  61  71 NE9       29.81S
KNOXVILLE *    SUNNY     77  57  50 N8        29.77S
MARSHALLTOWN   MOSUNNY   75  60  59 E6        29.78R
NEWTON *       MOSUNNY   73  63  68 E13       29.78R
PELLA *        PTSUNNY   78  62  56 E6        29.79S HX  80
PERRY *          N/A     82  50  32 NW10      29.77S HX  81
$$

IAZ004>006-015-016-023>025-035-036-270000-
   NORTH CENTRAL IOWA

CITY           SKY/WX    TMP DP  RH WIND       PRES   REMARKS
ALGONA *       MOSUNNY   79  46  31 NW7G14    29.77S
CLARION *      CLOUDY    79  54  41 W9        29.77S
ESTHERVILLE    CLOUDY    76  48  37 W15       29.77S
FORT DODGE *   MOSUNNY   77  54  44 NW5       29.78S
MASON CITY     MOSUNNY   76  56  49 SE5       29.78F
FOREST CITY *    N/A     79  46  31 S3        29.77S
WEBSTER CITY * MOSUNNY   79  52  38 NW6G13    29.75S
IOWA FALLS *   PTSUNNY   76  57  51 E5        29.79S
$$

IAZ007>011-017>019-026>030-037>042-050>054-066-270000-
   NORTHEAST IOWA

CITY           SKY/WX    TMP DP  RH WIND       PRES   REMARKS
CEDAR RAPIDS   CLOUDY    67  62  84 NE3       29.80R
CHARLES CITY * MOSUNNY   72  57  60 SE9       29.80F
CLINTON *      CLOUDY    65  60  84 E10       29.80R
DECORAH *      PTSUNNY   68  57  68 VRB5      29.80S
DUBUQUE        CLOUDY    64  59  83 E8        29.81S
MONTICELLO *   CLOUDY    66  61  82 E5        29.81R
OELWEIN *      MOSUNNY   70  59  68 SE8       29.82S
WATERLOO       MOSUNNY   70  59  68 SE13      29.80R
$$

IAZ064-065-067-068-078-270000-
   EAST CENTRAL IOWA

CITY           SKY/WX    TMP DP  RH WIND       PRES   REMARKS
DAVENPORT      CLOUDY    66  61  84 NE9       29.79S
IOWA CITY      CLOUDY    70  61  73 N5        29.81R
MT. PLEASANT * MOSUNNY   71  60  67 N9        29.79R
MUSCATINE *    PTSUNNY   70  61  73 NW7       29.79R
QUAD CITIES    CLOUDY    69  61  75 NE8       29.77R
$$

IAZ062-063-075>077-085>089-095>099-270000-
   SOUTHEAST IOWA

CITY           SKY/WX    TMP DP  RH WIND       PRES   REMARKS
BURLINGTON     MOSUNNY   76  64  66 NW10      29.77R
FAIRFIELD *    PTSUNNY   72  61  68 N9        29.79R
FORT MADISON * MOSUNNY   75  64  69 N8        29.78R
KEOKUK *       MOSUNNY   77  64  65 N5        29.76S
OSKALOOSA *      N/A     72  63  72 NE9       29.80S
CENTERVILLE *    N/A     79  59  50 CALM      29.80R HX  80
OTTUMWA        MOSUNNY   75  64  68 N9        29.79R
WASHINGTON *   CLOUDY    68  63  83 N8        29.81R
$$

ABBREVIATIONS USED IN REMARKS
   TC - TEMPERATURES IN CELSIUS
  WCI - WIND CHILL INDEX
   HX - HEAT INDEX
  VSB - VISIBILITY
$$





USA.gov is the U.S. government's official web portal to all federal, state and local government web resources and services.